Minchumina, AK

3:41 PM AKDT on May 27, 2017 (GMT -0800)
Minchumina

Weather History for PAMH - July, 2013

Change the Weather History Date:

Tuesday, July 16, 2013

  Actual Average Record
Temperature  
Mean Temperature 60 °F -  
Max Temperature 64 °F 65 °F 78 °F (2002)
Min Temperature 55 °F 50 °F 41 °F (2003)
Degree Days  
Heating Degree Days 6    
Growing Degree Days 10 (Base 50)    
Moisture  
Dew Point 52 °F    
Average Humidity 76    
Maximum Humidity 88    
Minimum Humidity 59    
Precipitation  
Precipitation 0.00 in - - ()
Sea Level Pressure  
Sea Level Pressure 30.15 in    
Wind  
Wind Speed 5 mph (SSW)    
Max Wind Speed 10 mph    
Max Gust Speed -    
Visibility 10 miles    
Events      
Averages and records for this station are not official NWS values.
T = Trace of Precipitation, MM = Missing Value Source: NWS Daily Summary

Daily Weather History Graph

Daily Weather History Graph

Search for Another Location

Airport or City:

Trip Planner

Search our weather history database for the weather conditions in past years. The results will help you decide how hot, cold, wet, or windy it might be!

Date:

Astronomy

Jul. 16, 2013 Rise Set
Actual Time 4:30 AM AKDT 11:57 PM AKDT
Civil Twilight 2:47 AM AKDT 1:42 AM AKDT
Nautical Twilight Sun does not set Sun does not set
Astronomical Twilight Sun does not set Sun does not set
Moon 4:48 PM AKDT (7/16) 12:27 AM AKDT (7/16)
Length of Visible Light 22h 55m
Length of Day
19h 26m
First Quarter, 58% of the Moon is Illuminated
Jul 16
First Quarter
Jul 22
Full
Jul 29
Last Quarter
Aug 6
New
Aug 14
First Quarter

Hourly Weather History & Observations

Time (AKDT) Temp. Dew Point Humidity Pressure Visibility Wind Dir Wind Speed Gust Speed Precip Events Conditions
12:16 AM 62.6 °F 48.2 °F 59% 30.15 in 10.0 mi SSW 3.5 mph - N/A   Overcast
12:36 AM 62.6 °F 48.2 °F 59% 30.15 in 10.0 mi SSW 4.6 mph - N/A   Overcast
12:56 AM 60.8 °F 50.0 °F 68% 30.16 in 10.0 mi SSW 4.6 mph - N/A   Overcast
1:16 AM 60.8 °F 48.2 °F 63% 30.17 in 10.0 mi SSW 4.6 mph - N/A   Overcast
1:36 AM 60.8 °F 50.0 °F 68% 30.17 in 10.0 mi SW 3.5 mph - N/A   Overcast
1:56 AM 57.2 °F 51.8 °F 82% 30.17 in 10.0 mi SW 3.5 mph - N/A   Overcast
2:16 AM 57.2 °F 51.8 °F 82% 30.18 in 10.0 mi South 3.5 mph - N/A   Overcast
2:36 AM 57.2 °F 51.8 °F 82% 30.17 in 10.0 mi South 3.5 mph - N/A   Overcast
2:56 AM 57.2 °F 51.8 °F 82% 30.17 in 10.0 mi South 4.6 mph - N/A   Overcast
3:16 AM 57.2 °F 51.8 °F 82% 30.17 in 10.0 mi South 4.6 mph - N/A   Overcast
3:36 AM 55.4 °F 51.8 °F 88% 30.17 in 10.0 mi SW 4.6 mph - N/A   Overcast
3:56 AM 55.4 °F 51.8 °F 88% 30.17 in 10.0 mi SSW 4.6 mph - N/A   Overcast
4:16 AM 55.4 °F 51.8 °F 88% 30.18 in 10.0 mi SSW 4.6 mph - N/A   Overcast
4:36 AM 55.4 °F 51.8 °F 88% 30.18 in 10.0 mi SSW 4.6 mph - N/A   Overcast
4:56 AM 55.4 °F 51.8 °F 88% 30.18 in 10.0 mi SSW 5.8 mph - N/A   Overcast
5:16 AM 55.4 °F 51.8 °F 88% 30.18 in 9.0 mi SW 3.5 mph - N/A   Overcast
5:36 AM 55.4 °F 51.8 °F 88% 30.18 in 10.0 mi SSW 3.5 mph - N/A   Overcast
5:56 AM 55.4 °F 51.8 °F 88% 30.18 in 10.0 mi SSW 3.5 mph - N/A   Overcast
6:16 AM 55.4 °F 51.8 °F 88% 30.18 in 10.0 mi SSW 3.5 mph - N/A   Overcast
6:36 AM 55.4 °F 51.8 °F 88% 30.18 in 10.0 mi SSW 4.6 mph - N/A   Overcast
6:56 AM 55.4 °F 51.8 °F 88% 30.17 in 10.0 mi SSW 5.8 mph - N/A   Overcast
7:16 AM 55.4 °F 51.8 °F 88% 30.17 in 10.0 mi SSW 5.8 mph - N/A   Overcast
7:36 AM 55.4 °F 51.8 °F 88% 30.17 in 10.0 mi SSW 4.6 mph - N/A   Overcast
7:56 AM 55.4 °F 51.8 °F 88% 30.18 in 10.0 mi South 4.6 mph - N/A   Overcast
8:16 AM 55.4 °F 51.8 °F 88% 30.17 in 10.0 mi SSW 3.5 mph - N/A   Overcast
8:36 AM 55.4 °F 51.8 °F 88% 30.17 in 10.0 mi SSW 3.5 mph - N/A   Overcast
8:56 AM 55.4 °F 51.8 °F 88% 30.18 in 10.0 mi SSW 6.9 mph - N/A   Overcast
9:16 AM 55.4 °F 51.8 °F 88% 30.18 in 10.0 mi SSW 4.6 mph - N/A   Overcast
9:36 AM 55.4 °F 51.8 °F 88% 30.18 in 10.0 mi SSW 5.8 mph - N/A   Overcast
9:56 AM 57.2 °F 51.8 °F 82% 30.17 in 10.0 mi SSW 5.8 mph - N/A   Overcast
10:16 AM 57.2 °F 51.8 °F 82% 30.17 in 10.0 mi SSW 9.2 mph - N/A   Overcast
10:36 AM 57.2 °F 51.8 °F 82% 30.17 in 10.0 mi SSW 6.9 mph - N/A   Overcast
10:56 AM 57.2 °F 51.8 °F 82% 30.17 in 10.0 mi SSW 6.9 mph - N/A   Overcast
11:16 AM 57.2 °F 51.8 °F 82% 30.17 in 10.0 mi SSW 8.1 mph - N/A   Overcast
11:36 AM 57.2 °F 51.8 °F 82% 30.17 in 10.0 mi SSW 6.9 mph - N/A   Overcast
11:56 AM 59.0 °F 51.8 °F 77% 30.17 in 10.0 mi SSW 9.2 mph - N/A   Overcast
12:16 PM 59.0 °F 51.8 °F 77% 30.16 in 10.0 mi SSW 8.1 mph - N/A   Overcast
12:36 PM 60.8 °F 51.8 °F 72% 30.17 in 10.0 mi South 9.2 mph - N/A   Mostly Cloudy
12:56 PM 60.8 °F 51.8 °F 72% 30.16 in 10.0 mi SSW 6.9 mph - N/A   Overcast
1:16 PM 60.8 °F 51.8 °F 72% 30.16 in 10.0 mi SSW 9.2 mph - N/A   Overcast
1:36 PM 60.8 °F 51.8 °F 72% 30.16 in 10.0 mi SSW 6.9 mph - N/A   Overcast
1:56 PM 60.8 °F 51.8 °F 72% 30.16 in 10.0 mi SSW 6.9 mph - N/A   Overcast
2:16 PM 60.8 °F 51.8 °F 72% 30.16 in 10.0 mi SSW 6.9 mph - N/A   Overcast
2:36 PM 60.8 °F 51.8 °F 72% 30.16 in 10.0 mi SSW 10.4 mph - N/A   Mostly Cloudy
2:56 PM 60.8 °F 51.8 °F 72% 30.16 in 10.0 mi SSW 8.1 mph - N/A   Overcast
3:16 PM 62.6 °F 51.8 °F 68% 30.15 in 10.0 mi SSW 8.1 mph - N/A   Overcast
3:36 PM 64.4 °F 51.8 °F 64% 30.14 in 10.0 mi SSW 8.1 mph - N/A   Overcast
3:56 PM 62.6 °F 51.8 °F 68% 30.14 in 10.0 mi SW 8.1 mph - N/A   Overcast
4:16 PM 64.4 °F 51.8 °F 64% 30.13 in 10.0 mi SSW 6.9 mph - N/A   Overcast
4:36 PM 64.4 °F 51.8 °F 64% 30.13 in 10.0 mi Calm Calm - N/A   Overcast
4:56 PM 64.4 °F 51.8 °F 64% 30.13 in 10.0 mi WSW 3.5 mph - N/A   Overcast
5:16 PM 62.6 °F 51.8 °F 68% 30.13 in 10.0 mi SW 3.5 mph - N/A   Overcast
5:36 PM 62.6 °F 51.8 °F 68% 30.13 in 9.0 mi Calm Calm - N/A   Overcast
5:56 PM 64.4 °F 51.8 °F 64% 30.12 in 10.0 mi SW 5.8 mph - N/A   Overcast
6:16 PM 64.4 °F 51.8 °F 64% 30.12 in 10.0 mi SW 6.9 mph - N/A   Overcast
6:36 PM 64.4 °F 51.8 °F 64% 30.12 in 10.0 mi SW 6.9 mph - N/A   Overcast
6:56 PM 64.4 °F 51.8 °F 64% 30.11 in 10.0 mi SW 5.8 mph - N/A   Overcast
7:16 PM 64.4 °F 51.8 °F 64% 30.11 in 10.0 mi SSW 6.9 mph - N/A   Overcast
7:36 PM 64.4 °F 51.8 °F 64% 30.11 in 10.0 mi SW 6.9 mph - N/A   Overcast
7:56 PM 64.4 °F 51.8 °F 64% 30.11 in 10.0 mi SW 6.9 mph - N/A   Overcast
8:16 PM 62.6 °F 51.8 °F 68% 30.11 in 10.0 mi SW 5.8 mph - N/A   Mostly Cloudy
8:36 PM 62.6 °F 51.8 °F 68% 30.11 in 10.0 mi SW 6.9 mph - N/A   Partly Cloudy
8:56 PM 62.6 °F 51.8 °F 68% 30.11 in 10.0 mi SW 5.8 mph - N/A   Scattered Clouds
9:16 PM 62.6 °F 51.8 °F 68% 30.11 in 10.0 mi WSW 3.5 mph - N/A   Partly Cloudy
9:36 PM 62.6 °F 51.8 °F 68% 30.11 in 10.0 mi WSW 3.5 mph - N/A   Clear
9:56 PM 60.8 °F 51.8 °F 72% 30.11 in 10.0 mi Calm Calm - N/A   Mostly Cloudy
10:16 PM 60.8 °F 51.8 °F 72% 30.12 in 10.0 mi Calm Calm - N/A   Mostly Cloudy
10:36 PM 60.8 °F 51.8 °F 72% 30.12 in 10.0 mi Calm Calm - N/A   Mostly Cloudy
10:56 PM 57.2 °F 51.8 °F 82% 30.11 in 10.0 mi Calm Calm - N/A   Scattered Clouds
11:16 PM 57.2 °F 51.8 °F 82% 30.11 in 10.0 mi Calm Calm - N/A   Partly Cloudy
11:36 PM 57.2 °F 51.8 °F 82% 30.12 in 10.0 mi Calm Calm - N/A   Partly Cloudy
11:56 PM 57.2 °F 51.8 °F 82% 30.12 in 10.0 mi Calm Calm - N/A   Mostly Cloudy